Miscellaneous Local Product
Issued by NWS Hastings, NE

Home | Current Version | Previous Version | Text Only | Print | Product List | Glossary Off
Versions: 1 2 3 4 5 6 7 8 9 10 11 12 13 14 15 16 17 18 19 20 21 22 23 24 25 26 27 28 29 30 31 32 33 34 35 36 37 38 39 40 41 42 43 44 45 46 47 48 49 50

000
AXUS43 KGID 220902
MISGRI

GID CWA HOURLY WEATHER ROUNDUP
NATIONAL WEATHER SERVICE HASTINGS NE
400 AM CDT SAT APR 22 2017

NOTE: "FAIR" INDICATES FEW OR NO CLOUDS BELOW 12,000 FEET WITH NO
SIGNIFICANT WEATHER AND/OR OBSTRUCTIONS TO VISIBILITY.

...SOUTH CENTRAL NEBRASKA...

CITY           SKY/WX    TMP DP  RH WIND       PRES   REMARKS
GRAND ISLAND   PTCLDY    39  37  92 N8        30.23S WCI  33
HASTINGS       CLOUDY    42  36  79 N8        30.22S
KEARNEY        CLOUDY    41  34  75 NW8       30.23F
ORD            MOCLDY    39  35  86 NW5       30.23S
YORK           CLOUDY    41  37  87 N7        30.22R
AURORA         CLOUDY    41  37  87 N8        30.22R
LEXINGTON      PTCLDY    33  31  91 NW6       30.24S WCI  28
HOLDREGE       PTCLDY    40  34  80 N7        30.22S WCI  35
HEBRON         PTCLDY    46  37  70 N8        30.18S

...NEBRASKA PANHANDLE...

CITY           SKY/WX    TMP DP  RH WIND       PRES   REMARKS
CHADRON        CLOUDY    43  34  70 S12       30.24S
ALLIANCE       PTCLDY    34  30  85 S6        30.24S WCI  29
SCOTTSBLUFF    PTCLDY    36  34  92 SE6       30.24S WCI  31
SIDNEY         CLOUDY    33  32  96 CALM      30.25R

...WESTERN AND NORTH CENTRAL NEBRASKA...

CITY           SKY/WX    TMP DP  RH WIND       PRES   REMARKS
VALENTINE      CLEAR     32  28  85 W6        30.25F WCI  26
AINSWORTH      CLEAR     36  33  92 W5        30.25S WCI  32
ONEILL         CLOUDY    44  39  82 NW6       30.25S
BROKEN BOW     CLEAR     32  28  85 N5        30.23S WCI  27
IMPERIAL       PTCLDY    39  34  82 N3        30.25F
NORTH PLATTE   CLEAR     31  30  96 NW3       30.26S
MCCOOK         CLOUDY    36  32  85 NW7       30.25R WCI  30

...EASTERN NEBRASKA...

CITY           SKY/WX    TMP DP  RH WIND       PRES   REMARKS
NORFOLK        PTCLDY    40  37  89 NW3       30.23S
SO SIOUX CITY  PTCLDY    37  37 100 NW5       30.24R WCI  33
TEKAMAH        CLEAR     41  37  86 N8        30.22R
COLUMBUS       PTCLDY    41  36  81 N6        30.23R
ALBION         PTCLDY    41  38  90 NW3       30.24S
OMAHA EPPLEY   CLOUDY    43  37  79 N9        30.20R
OFFUTT AFB     PTCLDY    47  37  68 N6        30.18S
MILLARD        PTCLDY    49  39  70 CALM      30.20R
LINCOLN        CLOUDY    43  37  79 N8        30.20S
NEBRASKA CITY  CLOUDY    46  34  64 NE8       30.17R
BEATRICE       PTCLDY    46  39  74 NE8       30.17R
FALLS CITY     CLOUDY    49  39  68 N9        30.13S

...NORTHERN KANSAS...

CITY           SKY/WX    TMP DP  RH WIND       PRES   REMARKS
GOODLAND       CLOUDY    39  39 100 S3        30.23S
HILL CITY      CLOUDY    44  41  89 N9        30.22S
NORTON         MOSUNNY   39  34  81 W8        30.22R WCI  34
PHILLIPSBURG   MOCLDY    45  41  87 NW8       30.22R
SMITH CENTER   CLOUDY    43  39  87 N8        30.20S
HAYS           CLOUDY    44  40  85 N12       30.18
RUSSELL        CLOUDY    44  41  89 N7        30.15F
CONCORDIA      CLOUDY    47  40  76 N10       30.16R
SALINA         CLOUDY    50  42  74 N13       30.13S
TOPEKA         CLOUDY    51  40  65 NE14      30.08R



USA.gov is the U.S. government's official web portal to all federal, state and local government web resources and services.